This demonstration page uses our WeatherBlox Daily Observations layout. Learn more.

Left ArrowRight Arrow

Hourly Observations for July 10, 2020

Temp ( °F °C ) Dew Point ( °F °C ) Humidity (%) Winds ( mph kmh ) Pressure ( in mb ) Visibility ( mi km ) Precip ( " mm )
12:54 am 00:54 Clear 70 21.1 66 18.9 87 87 Calm 29.98 1015 10 16.0934 0 0
1:54 am 01:54 Clear 67 19.4 64 17.8 91 91 Calm 29.99 1016 10 16.0934 0 0
2:54 am 02:54 Clear 69 20.6 66 18.9 90 90 Calm 29.99 1016 10 16.0934 0 0
3:54 am 03:54 Clear 70 21.1 66 18.9 87 87 W 3 6 29.98 1015 10 16.0934 0 0
4:54 am 04:54 Clear 69 20.6 65 18.3 87 87 SSE 3 6 29.96 1015 10 16.0934 0 0
5:54 am 05:54 Clear 65 18.3 62 16.7 90 90 SSE 6 9 29.96 1015 10 16.0934 0 0
6:54 am 06:54 Sunny 70 21.1 65 18.3 84 84 Calm 29.98 1015 10 16.0934 0 0
7:54 am 07:54 Sunny 72 22.2 66 18.9 82 82 Calm 30 1016 10 16.0934 0 0
8:54 am 08:54 Sunny 76 24.4 67 19.4 74 74 WSW 8 13 30.03 1017 10 16.0934 0.001 0.001
9:54 am 09:54 Sunny 79 26.1 68 20 69 69 SSW 5 7 30.02 1017 10 16.0934 0 0
10:54 am 10:54 Sunny 83 28.3 66 18.9 57 57 SSW 8 13 30.03 1017 10 16.0934 0 0
11:54 am 11:54 Sunny 85 29.4 66 18.9 53 53 S 9 15 30.02 1017 10 16.0934 0 0
12:54 pm 12:54 Sunny 86 30 64 17.8 48 48 SSW 10 17 30.01 1016 10 16.0934 0 0
1:54 pm 13:54 Sunny 87 30.6 66 18.9 50 50 S 9 15 30.01 1016 10 16.0934 0 0
2:54 pm 14:54 Sunny 88 31.1 66 18.9 48 48 S 5 7 30 1016 10 16.0934 0 0
3:54 pm 15:54 Sunny 88 31.1 67 19.4 50 50 SSW 7 11 30 1016 10 16.0934 0 0
4:54 pm 16:54 Sunny 88 31.1 67 19.4 50 50 S 7 11 29.99 1016 10 16.0934 0 0
5:54 pm 17:54 Sunny 87 30.6 67 19.4 51 51 S 6 9 29.99 1016 10 16.0934 0 0
6:54 pm 18:54 Sunny 84 28.9 70 21.1 63 63 SSW 12 19 29.95 1014 10 16.0934 0 0
7:54 pm 19:54 Sunny 84 28.9 67 19.4 57 57 ESE 16 26 29.9 1013 10 16.0934 0 0
8:54 pm 20:54 Sunny 83 28.3 67 19.4 59 59 SSE 13 20 29.91 1013 10 16.0934 0 0
9:54 pm 21:54 Clear 76 24.4 67 19.4 74 74 S 8 13 29.88 1012 10 16.0934 0 0
10:54 pm 22:54 Clear 76 24.4 67 19.4 74 74 S 5 7 29.88 1012 10 16.0934 0 0
11:54 pm 23:54 Clear 77 25 67 19.4 71 71 Calm 29.93 1013 10 16.0934 0 0

Powered by AerisWeather